Location: Hilton Head Island
(32.2163°N, 80.7526°W)
Time: 22:56:40
(UTC-04:00)

Vanguard 1 - Pass Details

Date: 23 February 2026
Orbit: 653 x 3818 km, 34.2° (Epoch: 13 March)

Event Time Altitude Azimuth Distance (km) Brightness Sun altitude
Rises 23:23:13 0° 275° (W) 7,465 14.8 -61.7°
Reaches altitude 10° 23:31:54 10° 256° (WSW) 6,795 14.4 -62.8°
Maximum altitude 23:42:21 15° 228° (SW) 6,457 14.1 -64.1°
Enters shadow 23:43:49 15° 224° (SW) 6,454 14.0 -64.2°
Drops below altitude 10° 23:52:49 10° 200° (SSW) 6,673 - -65.1°
Sets 00:01:32 0° 180° (S) 7,238 - -65.9°
